{"data":{"norad_id":63811,"epoch":"2026-05-25T04:00:03.998880Z","epoch_age_seconds":63920,"freshness":"FRESH","line1":"1 63811U 25092H   26145.16671295  .00507410  11630-3  10213-2 0  9992","line2":"2 63811  42.9848  63.3051 0024339 213.1179 214.6929 15.98262284  5914","mean_motion":15.98262284,"eccentricity":0.0024339,"inclination_deg":42.9848,"raan_deg":63.3051,"arg_perigee_deg":213.1179,"mean_anomaly_deg":214.6929,"bstar":0.0010213,"rev_number":591,"period_min":90.097852800235,"perigee_km":263.03644739458,"apogee_km":295.44322636113,"semimajor_km":6657.3768368779,"source":"CELESTRAK","updated_at":"2026-05-25T13:38:20.140551Z"}}